Location: Newark
(41.1142°N, 73.9831°W)
Time: 22:02:12
(UTC+00:00)

N. Korean satellite - Pass Details

Date: 27 September 2019
Orbit: 455 x 508 km, 97.2° (Epoch: 14 October)

Event Time Altitude Azimuth Distance (km) Brightness Sun altitude
Rises 09:52:53 0° 33° (NNE) 2,481 10.8 -11.2°
Reaches altitude 10° 09:55:47 10° 61° (ENE) 1,605 10.4 -10.7°
Maximum altitude 09:57:34 13° 92° (E) 1,405 10.3 -10.4°
Drops below altitude 10° 09:59:20 10° 124° (ESE) 1,607 10.0 -10.0°
Sets 10:02:14 0° 152° (SSE) 2,485 10.5 -9.5°
